Sexton Summit, OR

11:37 PM PDT on June 27, 2017 (GMT -0700)
Sexton Summit

Weather History for KSXT - December, 2012

Change the Weather History Date:

Wednesday, December 5, 2012

  Actual Average Record
Temperature  
Mean Temperature 40 °F -  
Max Temperature 46 °F 38 °F 61 °F (2000)
Min Temperature 33 °F 32 °F 18 °F (2013)
Degree Days  
Heating Degree Days 25    
Moisture  
Dew Point 37 °F    
Average Humidity 97    
Maximum Humidity 100    
Minimum Humidity 93    
Precipitation  
Precipitation 0.19 in - - ()
Sea Level Pressure  
Sea Level Pressure 30.11 in    
Wind  
Wind Speed 7 mph (NNW)    
Max Wind Speed 12 mph    
Max Gust Speed 18 mph    
Visibility 1 miles    
Events Fog , Rain    
Averages and records for this station are not official NWS values.
T = Trace of Precipitation, MM = Missing Value Source: NWS Daily Summary

Daily Weather History Graph

Daily Weather History Graph

Search for Another Location

Airport or City:

Trip Planner

Search our weather history database for the weather conditions in past years. The results will help you decide how hot, cold, wet, or windy it might be!

Date:

Astronomy

Dec. 05, 2012 Rise Set
Actual Time 7:28 AM PST 4:40 PM PST
Civil Twilight 6:56 AM PST 5:11 PM PST
Nautical Twilight 6:21 AM PST 5:47 PM PST
Astronomical Twilight 5:47 AM PST 6:21 PM PST
Moon 11:42 PM PST (12/5) 11:48 AM PST (12/5)
Length of Visible Light 10h 15m
Length of Day
9h 11m
Waning Gibbous, 58% of the Moon is Illuminated
Dec 5
Waning Gibbous
Dec 6
Last Quarter
Dec 13
New
Dec 19
First Quarter
Dec 28
Full

Hourly Weather History & Observations

Time (PST) Temp. Windchill Dew Point Humidity Pressure Visibility Wind Dir Wind Speed Gust Speed Precip Events Conditions
12:56 AM 46.0 °F 41.4 °F 45.0 °F 96% 29.98 in 0.2 mi SW 9.2 mph 18.4 mph 0.01 in Fog Fog
1:56 AM 45.0 °F 43.5 °F 44.1 °F 97% 30.01 in 0.2 mi Variable 3.5 mph - 0.06 in Fog , Rain Rain
2:11 AM 44.6 °F 42.2 °F 42.8 °F 93% 30.03 in 0.5 mi NNW 4.6 mph - 0.02 in Fog , Rain Rain
2:29 AM 42.8 °F 38.6 °F 42.8 °F 100% 30.03 in 1.0 mi NNW 6.9 mph - 0.05 in Rain Light Rain
2:56 AM 41.0 °F 36.4 °F 39.9 °F 96% 30.04 in 1.5 mi NNW 6.9 mph - 0.07 in Rain Light Rain
3:07 AM 41.0 °F 36.4 °F 39.2 °F 93% 30.05 in 2.0 mi NNW 6.9 mph - 0.01 in Rain Light Rain
3:15 AM 41.0 °F 35.8 °F 39.2 °F 93% 30.05 in 1.2 mi NNW 8.1 mph - 0.01 in Rain Light Rain
3:23 AM 39.2 °F 32.5 °F 39.2 °F 100% 30.05 in 1.8 mi NNW 10.4 mph - 0.02 in Rain Light Rain
3:37 AM 39.2 °F 34.2 °F 39.2 °F 100% 30.05 in 1.0 mi NNW 6.9 mph - 0.02 in Rain Light Rain
3:56 AM 39.9 °F 32.9 °F 39.0 °F 97% 30.06 in 0.8 mi NNW 11.5 mph 16.1 mph 0.03 in Rain Light Rain
4:02 AM 39.2 °F 33.0 °F 39.2 °F 100% 30.06 in 1.0 mi NNW 9.2 mph 16.1 mph 0.00 in Rain Light Rain
4:32 AM 39.2 °F 34.2 °F 37.4 °F 93% 30.06 in 1.0 mi NNW 6.9 mph - 0.00 in   Mist
4:46 AM 39.2 °F 35.9 °F 37.4 °F 93% 30.06 in 0.8 mi NNW 4.6 mph - 0.00 in   Mist
4:56 AM 39.0 °F 34.8 °F 37.9 °F 96% 30.07 in 0.8 mi NNW 5.8 mph - 0.00 in   Mist
5:03 AM 39.2 °F 33.0 °F 37.4 °F 93% 30.07 in 1.0 mi NNW 9.2 mph - N/A   Mist
6:56 AM 37.0 °F 31.6 °F 36.0 °F 96% 30.10 in 0.8 mi NNW 6.9 mph - N/A   Mist
7:02 AM 37.4 °F 30.8 °F 35.6 °F 93% 30.10 in 0.8 mi NNW 9.2 mph - N/A   Mist
7:45 AM 37.4 °F 30.8 °F 35.6 °F 93% 30.10 in 0.5 mi NNW 9.2 mph - N/A Fog Fog
7:50 AM 35.6 °F 28.0 °F 35.6 °F 100% 30.10 in 0.2 mi NNW 10.4 mph - N/A Fog Fog
7:56 AM 36.0 °F 28.5 °F 35.1 °F 97% 30.12 in 0.2 mi NNW 10.4 mph - N/A Fog Fog
8:07 AM 35.6 °F 28.0 °F 35.6 °F 100% 30.11 in 0.2 mi NW 10.4 mph 16.1 mph N/A Fog Fog
8:56 AM 36.0 °F 30.3 °F 35.1 °F 97% 30.13 in 0.2 mi NW 6.9 mph - N/A Fog Fog
9:44 AM 35.6 °F 29.9 °F 35.6 °F 100% 30.12 in 0.5 mi NNW 6.9 mph - N/A Fog Fog
9:53 AM 35.6 °F 29.9 °F 35.6 °F 100% 30.12 in 1.5 mi NW 6.9 mph - N/A   Overcast
9:56 AM 36.0 °F 31.1 °F 35.1 °F 97% 30.14 in 1.5 mi NW 5.8 mph - N/A   Overcast
10:05 AM 35.6 °F 31.7 °F 35.6 °F 100% 30.13 in 1.2 mi NNW 4.6 mph - N/A   Overcast
10:10 AM 35.6 °F 29.9 °F 35.6 °F 100% 30.13 in 2.0 mi NNW 6.9 mph - N/A   Overcast
10:16 AM 35.6 °F 29.9 °F 35.6 °F 100% 30.13 in 1.2 mi NNW 6.9 mph - N/A   Overcast
10:27 AM 35.6 °F 29.9 °F 35.6 °F 100% 30.13 in 0.8 mi NW 6.9 mph - N/A   Overcast
10:36 AM 35.6 °F 29.9 °F 35.6 °F 100% 30.13 in 1.2 mi NNW 6.9 mph - N/A   Overcast
10:56 AM 36.0 °F 29.6 °F 36.0 °F 100% 30.15 in 1.0 mi NNW 8.1 mph - N/A   Overcast
11:06 AM 37.4 °F 31.4 °F 35.6 °F 93% 30.13 in 0.5 mi NNW 8.1 mph - N/A Fog Fog
11:17 AM 35.6 °F 29.2 °F 35.6 °F 100% 30.13 in 1.5 mi NNW 8.1 mph - N/A   Overcast
11:20 AM 35.6 °F 29.2 °F 35.6 °F 100% 30.13 in 3.0 mi NNW 8.1 mph - N/A   Overcast
11:25 AM 37.4 °F 32.8 °F 35.6 °F 93% 30.13 in 1.8 mi NW 5.8 mph - N/A   Overcast
11:35 AM 37.4 °F 32.8 °F 35.6 °F 93% 30.13 in 3.0 mi NW 5.8 mph - N/A   Overcast
11:45 AM 37.4 °F 34.9 °F 35.6 °F 93% 30.14 in 4.0 mi NW 3.5 mph - N/A   Overcast
11:56 AM 37.0 °F 33.3 °F 37.0 °F 100% 30.14 in 6.0 mi NW 4.6 mph - N/A   Overcast
12:02 PM 37.4 °F 33.8 °F 37.4 °F 100% 30.13 in 1.8 mi NNW 4.6 mph - N/A   Overcast
12:09 PM 37.4 °F 33.8 °F 37.4 °F 100% 30.13 in 1.2 mi NW 4.6 mph - N/A   Overcast
12:17 PM 37.4 °F - 37.4 °F 100% 30.13 in 2.0 mi Calm Calm - N/A   Overcast
12:28 PM 37.4 °F 33.8 °F 37.4 °F 100% 30.13 in 3.0 mi NNW 4.6 mph - N/A   Overcast
12:37 PM 37.4 °F 34.9 °F 37.4 °F 100% 30.13 in 1.8 mi NNW 3.5 mph - N/A   Overcast
12:49 PM 37.4 °F 33.8 °F 37.4 °F 100% 30.13 in 0.8 mi NW 4.6 mph - N/A   Overcast
12:56 PM 39.0 °F 35.7 °F 37.9 °F 96% 30.13 in 0.2 mi NNW 4.6 mph - N/A Fog Fog
1:33 PM 37.4 °F 34.9 °F 37.4 °F 100% 30.13 in 0.2 mi NNW 3.5 mph - N/A Fog Fog
1:56 PM 37.9 °F - 37.0 °F 97% 30.13 in 0.2 mi Calm Calm - N/A Fog Fog
2:56 PM 37.9 °F 33.5 °F 37.0 °F 97% 30.14 in 0.2 mi North 5.8 mph - N/A Fog Fog
3:17 PM 37.4 °F 31.4 °F 37.4 °F 100% 30.11 in 0.2 mi NNW 8.1 mph - 0.00 in Fog , Rain Light Rain
3:28 PM 37.4 °F 32.8 °F 37.4 °F 100% 30.12 in 0.2 mi NNW 5.8 mph - 0.00 in Fog , Rain Light Rain
3:56 PM 37.0 °F 30.4 °F 36.0 °F 96% 30.15 in 0.2 mi NNW 9.2 mph - 0.00 in Fog Fog
4:56 PM 36.0 °F 31.1 °F 35.1 °F 97% 30.15 in 0.2 mi NNW 5.8 mph - 0.00 in Fog Fog
5:56 PM 35.1 °F 27.9 °F 35.1 °F 100% 30.16 in 0.2 mi NNW 9.2 mph - N/A Fog Fog
6:56 PM 36.0 °F 29.0 °F 35.1 °F 97% 30.18 in 0.2 mi NNW 9.2 mph - N/A Fog Fog
7:56 PM 35.1 °F 28.6 °F 35.1 °F 100% 30.18 in 0.2 mi NNW 8.1 mph - N/A Fog Fog
8:08 PM 35.6 °F 29.2 °F 33.8 °F 93% 30.13 in 0.5 mi NNW 8.1 mph - N/A Fog Fog
8:18 PM 35.6 °F 27.5 °F 33.8 °F 93% 30.13 in 0.2 mi NNW 11.5 mph - N/A Fog Fog
8:27 PM 35.6 °F 28.6 °F 33.8 °F 93% 30.14 in 0.5 mi NNW 9.2 mph - N/A Fog Fog
8:56 PM 35.1 °F 27.9 °F 34.0 °F 96% 30.18 in 0.2 mi NNW 9.2 mph - N/A Fog Fog
9:23 PM 35.6 °F 28.6 °F 33.8 °F 93% 30.13 in 0.5 mi NNW 9.2 mph - N/A Fog Fog
9:31 PM 35.6 °F 29.2 °F 33.8 °F 93% 30.14 in 0.2 mi NNW 8.1 mph - N/A Fog Fog
9:56 PM 35.1 °F 27.9 °F 34.0 °F 96% 30.19 in 0.2 mi NNW 9.2 mph - 0.00 in Fog , Rain Light Rain
10:56 PM 34.0 °F 26.6 °F 33.1 °F 96% 30.20 in 0.2 mi NNW 9.2 mph 17.3 mph 0.01 in Fog , Rain Light Rain
11:56 PM 33.1 °F 25.5 °F 32.0 °F 96% 30.21 in 0.2 mi NNW 9.2 mph - 0.01 in Fog Fog